Flag Weather past 2 weeks in Makassar, South Sulawesi, Indonesia

Now
77 °F

Passing clouds.


Feels Like: 78 °F
Forecast: 78 / 89 °F
Wind: 3 mph from East

Location: Ujung Pandang / Hasanuddin

Current Time: Nov 26, 2014 at 5:17:59 AM

Latest Report: Nov 26, 2014 at 2:00 AM


Visibility: 5 mi

Pressure: 29.71 "Hg

Humidity: 89%

Dew point: 73 °F

Location of MakassarLocation

Historic Weather in Makassar — Graph

°F

Makassar temperature yesterday

Maximum temperature yesterday: 91 °F (at 11:30 AM)
Minimum temperature yesterday: 75 °F (at 12:30 AM)
Average temperature yesterday: 83 °F

Past Weeks' High & Low Weather Summary

 TemperatureHumidityPressure
High95 °F (Nov 13, 11:00 AM)100% (Nov 16, 9:00 PM)29.89 "Hg (Nov 16, 9:00 PM)
Low70 °F (Nov 19, 5:00 AM)39% (Nov 13, 10:30 AM)29.68 "Hg (Nov 25, 2:30 PM)
Average82 °F80%29.79 "Hg
* Reported Nov 11 2:00 AM — Nov 26 2:00 AM, Makassar, Weather by CustomWeather, © 2014

Note: Actual official high and low records may vary slightly from our data, if they occured in-between our weather recording intervals... More about our weather records

Advertising

Makassar weather history for previous 24 hours

 ConditionsComfort  
Time TempWeatherWind HumidityBarometerVisibility
2:00 AM
Nov 26
77 °FPassing clouds.3 mph89%29.71 "Hg5 mi
1:30 AM77 °FPassing clouds.2 mph94%29.74 "Hg5 mi
1:00 AM77 °FPassing clouds.3 mph100%29.74 "Hg5 mi
12:30 AM79 °FClear.2 mph100%29.74 "Hg5 mi
12:00 AM79 °FClear.2 mph100%29.74 "Hg5 mi
11:30 PM
Nov 25
79 °FClear.1 mph100%29.77 "Hg5 mi
11:00 PM79 °FPassing clouds.2 mph100%29.74 "Hg5 mi
10:30 PM79 °FPassing clouds.2 mph100%29.74 "Hg5 mi
10:00 PM81 °FPassing clouds.2 mph94%29.77 "Hg5 mi
9:30 PM81 °FPassing clouds.1 mph94%29.77 "Hg5 mi
9:00 PM81 °FPassing clouds.1 mph94%29.77 "Hg5 mi
8:30 PM82 °FPassing clouds.1 mph89%29.74 "Hg5 mi
8:00 PM82 °FPassing clouds.1 mph89%29.74 "Hg5 mi
7:30 PM82 °FPassing clouds.2 mph89%29.74 "Hg5 mi
7:00 PM84 °FPassing clouds.3 mph79%29.71 "Hg6 mi
6:00 PM86 °FPassing clouds.5 mph75%29.71 "HgN/A
5:30 PM86 °FScattered clouds.5 mph75%29.68 "HgN/A
5:00 PM86 °FPartly sunny.6 mph75%29.68 "Hg6 mi
4:30 PM88 °FPartly sunny.8 mph70%29.68 "Hg6 mi
4:00 PM90 °FScattered clouds.8 mph63%29.68 "Hg6 mi
3:30 PM88 °FScattered clouds.10 mph70%29.68 "HgN/A
3:00 PM90 °FScattered clouds.8 mph67%29.68 "HgN/A
2:30 PM90 °FPassing clouds.8 mph67%29.68 "HgN/A
2:00 PM90 °FPassing clouds.10 mph67%29.71 "HgN/A
1:30 PM91 °FPassing clouds.8 mph63%29.71 "HgN/A
1:00 PM90 °FScattered clouds.9 mph67%29.71 "HgN/A
12:30 PM90 °FScattered clouds.8 mph67%29.74 "HgN/A
12:00 PM90 °FScattered clouds.6 mph63%29.77 "HgN/A
11:30 AM91 °FScattered clouds.7 mph59%29.77 "HgN/A
11:00 AM90 °FScattered clouds.5 mph63%29.77 "HgN/A
10:30 AM90 °FScattered clouds.5 mph67%29.80 "HgN/A
10:00 AM90 °FScattered clouds.2 mph67%29.80 "HgN/A
9:30 AM86 °FScattered clouds.5 mph75%29.83 "HgN/A
9:00 AM86 °FScattered clouds.6 mph75%29.83 "HgN/A
8:30 AM86 °FPassing clouds.2 mph79%29.83 "HgN/A
8:00 AM86 °FPassing clouds.2 mph70%29.80 "HgN/A
7:30 AM82 °FPassing clouds.3 mph74%29.83 "HgN/A
7:00 AM79 °FPassing clouds.3 mph84%29.80 "HgN/A
6:30 AM77 °FPassing clouds.2 mph89%29.80 "HgN/A
6:00 AM75 °FMild.2 mph94%29.77 "HgN/A
5:30 AM75 °FMild.1 mph94%29.77 "HgN/A
5:00 AM75 °FPassing clouds.3 mph94%29.77 "Hg5 mi
Weather by CustomWeather, © 2014

See weather overviewHow to use our weather pages